Regional Weather Roundup
Issued by NWS Sioux Falls, SD

Home | Current Version | Previous Version | Graphics & Text | Print | Product List | Glossary Off
Versions: 1 2 3 4 5 6 7 8 9 10 11 12 13 14 15 16 17 18 19 20 21 22 23 24 25 26 27 28 29 30 31 32 33 34 35 36 37 38 39 40 41 42 43 44 45 46 47 48 49 50

075
ASUS43 KFSD 161102
RWRFSD

WEATHER ROUNDUP FOR SE SOUTH DAKOTA/SW MINNESOTA/NW IOWA
NATIONAL WEATHER SERVICE SIOUX FALLS SD
500 AM CST TUE JAN 16 2018

NOTE: "FAIR" INDICATES FEW OR NO CLOUDS BELOW 12,000 FEET WITH NO
SIGNIFICANT WEATHER AND OR OBSTRUCTIONS TO VISIBILITY.


SDZ038>040-050-052>070-161200-
SOUTHEAST SOUTH DAKOTA

CITY           SKY/WX    TMP DP  RH WIND       PRES   REMARKS
BROOKINGS      CLOUDY    -8 -13  78 N12       30.69F WCI -27
CHAMBERLAIN    CLEAR     -7 -13  74 W9        30.79S WCI -24
HURON          PTCLDY   -10 -16  74 NW10      30.79F WCI -29
MADISON        CLOUDY    -8  -9  92 N12       30.69S WCI -27
MITCHELL       MOCLDY    -7 -14  71 NW13      30.81S WCI -27
SIOUX FALLS    CLOUDY    -5  -9  83 NW16      30.71S WCI -27
WINNER         FAIR      -6 -13  71 W9        30.76F WCI -23
YANKTON        LGT SNOW  -5 -10  79 NW14      30.78R WCI -25
$$

MNZ071-072-080-081-089-090-097-098-161200-
SOUTHWEST MINNESOTA

CITY           SKY/WX    TMP DP  RH WIND       PRES   REMARKS
FAIRMONT       LGT SNOW  -6 -11  79 NW22      30.65R WCI -31
JACKSON        LGT SNOW  -8 -13  77 NW20G28   30.63S WCI -32
LUVERNE        CLOUDY    -4  -9  77 N9        30.70R WCI -20
MARSHALL       CLOUDY    -8 -13  78 NW15      30.73S WCI -30
MONTEVIDEO     CLOUDY   N/A N/A N/A N12         N/A
PIPESTONE      CLOUDY    -6  -9  84 N8        30.65S WCI -21
REDWOOD FALLS  FLURRIES  -9 -14  78 NW12G22   30.72S WCI -28
WINDOM         LGT SNOW  -8 -20  54 NW17G24   30.66R WCI -31
WORTHINGTON    CLOUDY    -9 -14  78 N21       30.66S WCI -34
$$

IAZ001>003-012>014-020>022-031-032-NEZ013-014-SDZ071-161200-
NORTHWEST IOWA

CITY           SKY/WX    TMP DP  RH WIND       PRES   REMARKS
CHEROKEE       CLOUDY    -4 -10  77 N16       30.69S WCI -26
DENISON        CLOUDY    -4 -11  71 NW14      30.69S WCI -24
ESTHERVILLE    LGT SNOW  -7 -11  83 N20       30.64S FOG     WCI -31
LE MARS        CLOUDY    -2  -8  78 N13G21    30.72S WCI -21
ORANGE CITY    MOCLDY    -2  -8  78 NW13G20   30.67S WCI -21
SHELDON        CLOUDY    -8 -11  84 NW10      30.67S WCI -26
SIOUX CITY     CLOUDY    -2  -7  79 NW16      30.73F WCI -23
SPENCER        LGT SNOW  -6 -13  71 NW16      30.66S WCI -28
STORM LAKE     FLURRIES  -6 -11  77 NW18      30.63S WCI -29
$$

ABBREVIATIONS USED IN REMARKS
   TC - TEMPERATURE IN CELSIUS
  WCI - WIND CHILL INDEX
   HX - HEAT INDEX
  VSB - VISIBILITY





USA.gov is the U.S. government's official web portal to all federal, state and local government web resources and services.